OK1CMJ-5 Weather Reports


time (UTC)temp
F
wind
direction
speed
knots
gust
knots
rain 1hr
in
rain 24hr
in
rain mn
in
humidity
%
barometer
mb
20260902205051 59 0 0.0 0.0 0.00 0.00 0.00 38 1023.1
20260902203251 60 270 0.0 0.9 0.00 0.02 0.00 37 1023.4
20260902202351 61 0 0.0 0.0 0.00 0.02 0.00 37 1023.1
20260902201453 61 324 0.0 1.7 0.00 0.02 0.00 38 1023.2
20260902200551 61 326 0.0 4.3 0.00 0.02 0.00 40 1023.3
20260902195651 60 317 0.0 7.0 0.00 0.02 0.00 41 1023.4
20260902194751 59 344 3.5 7.0 0.00 0.02 0.00 40 1023.4
20260902193851 59 90 0.0 1.7 0.00 0.02 0.00 35 1023.1
20260902192951 59 90 0.0 1.7 0.00 0.02 0.00 34 1023.0
20260902191150 60 0 0.0 0.0 0.00 0.02 0.00 33 1023.0
20260902190251 60 90 0.0 0.9 0.00 0.02 0.00 32 1023.0
20260902184451 60 90 0.0 1.7 0.00 0.02 0.00 30 1023.1
20260902183550 60 90 0.0 0.9 0.00 0.02 0.00 28 1022.9
20260902182651 61 90 0.0 0.9 0.00 0.02 0.00 27 1022.8
20260902181751 62 90 0.0 0.9 0.00 0.02 0.00 25 1022.6
20260902180851 64 0 0.0 0.0 0.00 0.02 0.00 21 1022.6
20260902175951 64 0 0.0 0.0 0.00 0.02 0.00 21 1022.5
20260902175057 65 90 0.0 0.9 0.00 0.02 0.00 19 1022.4
20260902174150 66 30 0.0 0.9 0.00 0.02 0.00 16 1022.4
20260902173251 67 1 0.0 0.9 0.00 0.02 0.00 15 1022.5
20260902172350 67 1 0.0 0.9 0.00 0.02 0.00 13 1022.3
20260902170550 69 1 0.0 0.9 0.00 0.02 0.00 11 1022.5
20260902165650 69 1 0.0 0.9 0.00 0.02 0.00 11 1022.4
20260902164751 69 1 0.0 2.6 0.00 0.02 0.00 10 1022.2
20260902162950 70 1 0.0 1.7 0.00 0.02 0.00 10 1022.5
20260902162050 71 1 0.0 2.6 0.00 0.02 0.00 10 1022.5
20260902161151 71 1 0.0 1.7 0.00 0.02 0.00 10 1022.5
20260902160250 72 1 0.0 1.7 0.00 0.02 0.00 10 1022.3
20260902155350 72 357 0.0 1.7 0.00 0.02 0.00 10 1022.3
20260902154450 74 357 0.0 2.6 0.00 0.02 0.00 10 1022.4
20260902153551 75 309 0.0 4.3 0.00 0.02 0.00 10 1022.4
20260902152650 76 328 0.0 1.7 0.00 0.02 0.00 10 1022.6
20260902151750 76 306 0.0 2.6 0.00 0.02 0.00 10 1022.6
20260902150850 77 286 0.9 3.5 0.00 0.02 0.00 10 1022.7
20260902145950 78 314 0.9 6.1 0.00 0.02 0.00 10 1022.8
20260902145051 75 317 0.9 5.2 0.00 0.02 0.00 10 1022.7
20260902144150 76 312 2.6 7.8 0.00 0.02 0.00 10 1022.7
20260902143250 78 292 1.7 6.1 0.00 0.02 0.00 10 1022.8
20260902142350 77 329 0.9 4.3 0.00 0.02 0.00 10 1022.9
20260902140550 76 297 0.9 6.1 0.00 0.02 0.00 10 1023.2
20260902135650 77 286 1.7 5.2 0.00 0.02 0.00 10 1023.1
20260902134750 79 344 0.0 3.5 0.00 0.02 0.00 10 1023.1
20260902133850 77 300 0.9 5.2 0.00 0.02 0.00 10 1023.1
20260902132950 78 275 0.0 3.5 0.00 0.02 0.00 10 1023.1
20260902132050 76 310 0.0 2.6 0.00 0.02 0.00 10 1023.2
20260902131150 76 316 0.0 6.1 0.00 0.02 0.00 10 1023.5
20260902130250 76 321 1.7 6.1 0.00 0.02 0.00 10 1023.5
20260902125351 76 306 0.0 4.3 0.00 0.02 0.00 10 1023.5
20260902123550 76 307 1.7 4.3 0.00 0.02 0.00 10 1023.5
20260902122650 77 210 0.9 3.5 0.00 0.02 0.00 10 1023.4
20260902121750 79 286 0.0 3.5 0.00 0.02 0.00 10 1023.5
20260902120850 79 326 0.9 3.5 0.00 0.02 0.00 10 1023.5
20260902115051 76 305 1.7 7.0 0.00 0.02 0.00 10 1023.6
20260902114150 76 313 1.7 5.2 0.00 0.02 0.00 10 1023.8
20260902113250 76 316 1.7 7.8 0.00 0.02 0.00 10 1023.8
20260902112350 76 309 1.7 5.2 0.00 0.02 0.00 10 1023.8
20260902111450 76 296 1.7 6.1 0.00 0.02 0.00 10 1023.9
20260902110550 75 313 0.9 6.1 0.00 0.02 0.00 10 1024.1
20260902105650 77 332 0.9 7.0 0.00 0.02 0.00 10 1024.0
20260902104750 76 319 0.0 4.3 0.00 0.02 0.00 10 1024.3
20260902103850 76 312 1.7 9.6 0.00 0.02 0.00 10 1024.1
20260902102950 74 346 4.3 9.6 0.00 0.02 0.00 10 1024.2
20260902102050 73 353 1.7 7.0 0.00 0.02 0.00 10 1024.4
20260902101150 74 1 2.6 5.2 0.00 0.02 0.00 10 1024.2
20260902095351 72 345 0.9 4.3 0.00 0.02 0.00 10 1024.4
20260902094450 71 1 1.7 3.5 0.00 0.02 0.00 11 1024.3
20260902093550 71 355 1.7 6.1 0.00 0.02 0.00 11 1024.5
20260902092650 72 327 0.9 3.5 0.00 0.02 0.00 10 1024.5
20260902091750 72 316 0.0 5.2 0.00 0.02 0.00 12 1024.7
20260902090850 70 314 0.9 1.7 0.00 0.02 0.00 15 1024.5
20260902085950 69 318 0.0 3.5 0.00 0.02 0.00 15 1024.4
20260902085050 70 321 0.0 1.7 0.00 0.02 0.00 13 1024.4
20260902083250 71 321 0.9 5.2 0.00 0.02 0.00 12 1024.2
20260902082350 73 315 0.0 1.7 0.00 0.02 0.00 12 1024.4
20260902081450 76 347 0.0 1.7 0.00 0.02 0.00 10 1024.4
20260902080550 77 1 0.0 2.6 0.00 0.02 0.00 10 1024.4
20260902075650 77 1 0.9 3.5 0.00 0.02 0.00 11 1024.3
20260902074750 76 134 0.9 3.5 0.00 0.02 0.00 12 1024.3
20260902073850 75 297 0.0 4.3 0.00 0.02 0.00 13 1024.3
20260902072950 74 350 0.9 4.3 0.00 0.02 0.00 13 1024.3
20260902072050 73 299 1.7 3.5 0.00 0.02 0.00 15 1024.4
20260902065350 73 270 0.9 2.6 0.00 0.02 0.00 24 1024.5
20260902064450 74 270 0.9 1.7 0.00 0.02 0.00 28 1024.4
20260902063550 72 270 0.0 1.7 0.00 0.02 0.00 35 1024.4
20260902062650 71 347 0.0 1.7 0.00 0.02 0.00 40 1024.4
20260902061750 70 1 0.0 0.9 0.00 0.02 0.00 55 1024.2
20260902060850 69 1 0.0 0.9 0.00 0.02 0.00 74 1024.5
20260902055950 64 1 0.0 1.7 0.00 0.02 0.00 75 1024.5
20260902055051 61 357 0.9 1.7 0.00 0.02 0.00 79 1024.2
20260902054150 60 316 0.0 1.7 0.00 0.02 0.00 98 1024.1
20260902053250 58 0 0.0 0.0 0.00 0.02 0.00 99 1024.1
20260902052350 54 0 0.0 0.0 0.00 0.02 0.00 91 1024.0
20260902051450 51 181 0.0 0.9 0.00 0.02 0.00 87 1024.1
20260902050550 50 314 0.0 0.9 0.00 0.02 0.00 86 1024.0
20260902045650 49 314 0.0 0.9 0.00 0.02 0.00 85 1024.1
20260902044750 49 0 0.0 0.0 0.00 0.02 0.00 85 1023.9
20260902043852 49 0 0.0 0.0 0.00 0.02 0.00 84 1023.9
20260902042950 49 314 0.0 0.9 0.00 0.02 0.00 83 1024.0
20260902041150 50 0 0.0 0.0 0.00 0.02 0.00 82 1023.8
20260902040250 50 0 0.0 0.0 0.00 0.02 0.00 82 1023.8
20260902035350 51 0 0.0 0.0 0.00 0.02 0.00 82 1023.9
20260902034450 51 0 0.0 0.0 0.00 0.02 0.00 82 1023.9
20260902033550 51 0 0.0 0.0 0.00 0.02 0.00 82 1024.0
20260902030850 52 0 0.0 0.0 0.00 0.02 0.00 82 1024.1
20260902025950 52 270 0.0 0.9 0.00 0.02 0.00 81 1024.0
20260902025050 51 0 0.0 0.0 0.00 0.02 0.00 81 1024.1
20260902024150 51 0 0.0 0.0 0.00 0.02 0.00 80 1024.2
20260902023250 51 0 0.0 0.0 0.00 0.02 0.00 79 1024.2
20260902013850 50 314 0.0 0.9 0.00 0.02 0.00 74 1024.2
20260902012950 51 0 0.0 0.0 0.00 0.02 0.00 74 1024.1
20260902012051 51 0 0.0 0.0 0.00 0.02 0.00 74 1024.0
20260902011150 50 0 0.0 0.0 0.00 0.04 0.00 73 1023.9
20260902010250 50 0 0.0 0.0 0.00 0.04 0.00 73 1024.0
20260902005350 51 0 0.0 0.0 0.00 0.04 0.00 73 1024.0
20260902004450 51 270 0.0 1.7 0.00 0.04 0.00 73 1024.0
20260902003550 51 270 0.0 1.7 0.00 0.04 0.00 73 1024.0
20260902002650 51 0 0.0 0.0 0.00 0.04 0.00 72 1024.1
20260902001750 51 0 0.0 0.0 0.00 0.04 0.00 72 1024.1
20260902000850 51 1 0.0 0.9 0.00 0.04 0.00 71 1024.1
20260901235950 51 1 0.0 1.7 0.00 0.04 0.00 71 1024.0
20260901235050 51 1 0.0 1.7 0.00 0.04 0.00 70 1024.1
20260901234150 50 0 0.0 0.0 0.00 0.04 0.00 69 1024.1
20260901233250 50 1 0.0 0.9 0.00 0.04 0.00 68 1024.2
20260901232350 50 1 0.0 0.9 0.00 0.04 0.00 68 1024.3
20260901231450 51 1 0.0 0.9 0.00 0.04 0.00 68 1024.1
20260901230550 51 0 0.0 0.0 0.00 0.04 0.00 67 1024.2
20260901225650 51 1 0.0 1.7 0.00 0.04 0.00 67 1024.1
20260901224750 51 0 0.0 0.0 0.00 0.04 0.00 66 1024.2
20260901223850 51 0 0.0 0.0 0.00 0.04 0.00 66 1024.1
20260901222950 51 0 0.0 0.0 0.00 0.04 0.00 66 1024.3
20260901222050 52 0 0.0 0.0 0.00 0.04 0.00 65 1024.3
20260901221150 52 0 0.0 0.0 0.00 0.04 0.00 66 1024.4
20260901220250 52 1 0.0 0.9 0.00 0.04 0.00 65 1024.3
20260901215349 52 1 0.0 1.7 0.00 0.04 0.04 66 1024.4
20260901214450 52 1 0.0 1.7 0.00 0.04 0.04 65 1024.4
20260901213549 52 1 0.0 1.7 0.00 0.04 0.04 65 1024.4
20260901212650 52 1 0.0 1.7 0.02 0.04 0.04 64 1024.1
20260901211750 52 277 0.0 1.7 0.02 0.04 0.04 64 1024.4